Regional Weather Roundup
Issued by NWS

Home | Current Version | Previous Version | Text Only | Print | Product List | Glossary On
Versions: 1 2 3 4 5 6 7 8 9 10 11 12 13 14 15 16 17 18 19 20 21 22 23 24 25 26 27 28 29 30 31 32 33 34 35 36 37 38 39 40 41 42 43 44 45 46 47 48 49 50
000
ASPQ40 PGUM 160412
RWRPQ
WEATHER ROUNDUP FOR THE MARIANAS AND MICRONESIA
NATIONAL WEATHER SERVICE TIYAN GU
200 PM CHST SAT DEC 16 2017

GUZ001>004-160500-
MARIANA ISLANDS-

CITY           SKY/WX    TMP DP  RH WIND       PRES   REMARKS
GUAM AIRPORT   MOSUNNY   84  79  84 E16G25    29.80F HX  96
ANDERSEN AFB   PTSUNNY   84  77  79 E17       29.81F HX  94
ROTA AIRPORT   PTSUNNY   82  77  83 E12G20    29.81F HX  91
TINIAN AP      PTSUNNY   82  75  78 NE16      29.80F
SAIPAN AP      LGT RAIN  82  81  94 E18       29.80F HX  95

$$

PMZ161-160500-
REPUBLIC OF PALAU-

CITY           SKY/WX    TMP DP  RH WIND       PRES   REMARKS
KOROR AP       CLOUDY    86  77  74 W12G20    29.74F HX  97
KOROR WSO      CLOUDY    88  77  70 W9        29.74F HX 100

$$

PMZ171>174-160500-
FEDERATED STATES OF MICRONESIA-

CITY           SKY/WX    TMP DP  RH WIND       PRES   REMARKS
YAP AIRPORT    LGT RAIN  82  79  89 VRB3      29.77F HX  93
CHUUK AP       CLOUDY    88  82  84 NE9       29.69F HX 108
POHNPEI AP     PTSUNNY   88  77  70 E10       29.72F HX 100
POHNPEI WSO    PTSUNNY   86  75  70 NE7       29.76F HX  95
KOSRAE AP      NOT AVBL

$$

PMZ181-160500-
REPUBLIC OF THE MARSHALL ISLANDS-

CITY           SKY/WX    TMP DP  RH WIND       PRES   REMARKS
KWAJALEIN AP   MOSUNNY   86  75  70 E13       29.75F HX  95
MAJURO AP      NOT AVBL
MAJURO WSO     NOT AVBL

$$




USA.gov is the U.S. government's official web portal to all federal, state and local government web resources and services.